Wind_Speed
13 13 10 10 10 6 6 7 9 7 8 8 6 5 3 1 4 5 3 3 4 3 5 5 8 13 16 18 18 18 17 17 16 14 14 15 16 18 18 18 19 21 21 22 27 31 32 34 37 39 42 43 43 42 41 42 42 42 43 43 43 42 42
15 14 11 11 11 8 6 7 9 5 5 7 5 3 3 4 6 4 3 7 5 3 6 5 5 9 12 14 16 17 17 16 16 15 15 16 17 18 19 20 20 21 20 21 25 31 34 38 40 42 44 44 43 43 42 43 42 42 43 43 43 42 42
13 11 10 10 10 10 8 6 8 6 5 7 5 4 6 7 7 5 4 6 6 6 6 4 7 10 12 13 14 15 16 16 16 16 16 17 17 16 17 19 18 18 19 20 24 30 35 39 42 43 43 41 41 41 42 44 45 45 46 44 43 42 43
10 8 8 9 9 10 8 5 6 6 5 7 6 4 4 5 6 6 4 3 5 7 6 6 9 11 13 15 14 15 16 18 17 16 16 16 16 15 16 17 17 18 20 21 27 33 35 38 39 38 38 38 39 40 41 42 43 44 45 44 43 43 43
8 7 7 11 11 9 9 8 7 6 3 3 5 5 4 5 4 4 4 5 6 6 5 9 11 11 13 15 16 16 17 19 19 18 17 17 17 17 17 17 17 19 20 21 28 34 34 35 35 35 36 38 39 39 40 42 42 42 43 43 44 44 44
8 7 7 13 15 12 10 9 9 9 5 4 5 7 5 4 5 5 5 8 8 5 5 8 10 10 10 13 16 16 17 21 21 19 19 19 18 18 18 18 18 19 19 19 23 28 30 30 32 34 36 37 37 38 39 41 42 42 44 44 45 45 44
8 8 7 10 16 17 13 11 9 8 5 5 6 7 4 4 6 4 4 8 8 5 6 8 9 10 9 9 13 15 16 19 19 19 20 20 19 19 19 19 18 18 18 18 20 24 27 29 31 33 35 36 37 39 40 40 41 43 44 44 45 45 44
8 11 10 7 10 15 13 11 10 9 9 8 6 5 5 5 6 4 4 8 5 2 6 7 7 9 7 6 10 13 13 14 16 19 19 17 18 20 20 19 17 17 17 16 16 18 20 25 29 32 34 35 37 38 39 40 42 43 43 43 44 44 44
7 10 10 7 7 9 9 10 13 14 15 13 6 4 4 4 6 7 6 8 4 2 5 8 9 12 8 5 7 11 12 12 14 17 17 17 19 20 19 18 16 16 16 14 14 14 16 22 27 30 33 34 35 37 38 39 40 40 41 42 43 43 43
10 10 10 8 6 7 7 10 17 19 18 17 10 5 5 6 5 6 7 7 5 4 5 9 12 14 13 10 6 6 9 11 12 14 16 17 18 17 18 18 17 16 14 14 16 15 16 22 26 29 32 34 35 36 38 38 37 38 40 41 42 42 42
13 11 10 7 6 9 11 11 16 19 20 19 13 7 7 6 4 5 7 5 4 6 7 9 13 15 15 12 7 6 8 8 9 10 13 15 16 16 17 17 15 15 14 15 17 16 17 22 27 29 32 34 35 35 36 37 37 37 39 39 40 40 41
17 15 13 10 9 10 14 15 14 17 20 20 16 13 9 8 7 9 8 7 6 8 7 9 11 13 12 7 6 8 8 8 9 8 9 12 14 16 16 16 16 16 15 16 17 16 17 21 26 29 31 34 35 35 36 36 36 37 38 39 39 40 40
18 19 17 16 13 9 11 16 17 17 19 21 20 17 12 11 9 13 8 9 9 7 7 9 10 10 9 6 8 8 5 6 9 10 11 12 13 15 16 16 16 16 16 16 17 17 17 20 23 26 28 31 33 34 35 37 37 39 40 40 40 40 40
15 19 21 20 18 13 10 12 15 17 19 22 22 19 15 13 13 11 8 10 11 7 8 11 9 9 9 5 6 6 4 5 8 10 12 14 15 16 15 16 16 17 18 18 17 17 16 17 20 23 25 28 31 33 34 36 38 40 41 40 40 39 41
12 15 21 21 20 18 14 11 13 15 17 19 20 19 15 12 11 8 9 9 10 6 6 9 9 8 6 5 6 8 8 7 7 9 11 12 13 13 12 13 14 15 16 15 15 17 17 17 21 25 27 30 32 33 34 36 38 40 41 41 40 41 43
8 10 15 22 21 17 15 14 14 15 15 15 14 13 11 11 9 7 7 7 7 7 6 8 10 8 6 7 8 8 7 7 6 8 10 11 12 12 11 10 10 10 11 12 13 15 16 18 23 26 27 29 30 31 34 37 40 40 40 40 40 42 43
8 11 13 16 18 14 13 15 13 12 11 13 14 13 12 12 9 8 8 8 7 8 8 9 11 10 8 8 6 4 5 7 8 9 9 10 11 12 13 13 12 12 11 12 14 15 15 19 25 30 31 31 31 35 39 41 40 39 39 40 41 41 41
9 14 16 10 14 15 13 10 11 13 11 11 12 11 11 12 10 6 6 6 6 8 9 10 11 9 6 4 2 5 2 2 5 7 9 11 13 13 13 14 14 14 13 13 15 18 22 27 33 36 37 37 38 41 41 40 39 38 39 39 39 40 39
8 11 9 5 11 14 9 6 10 13 13 11 8 1 3 4 5 2 4 3 1 3 6 9 10 7 6 8 10 10 8 5 2 2 4 5 7 10 12 13 13 12 12 13 13 16 24 30 33 33 34 35 36 36 36 36 37 38 39 38 38 38 38
6 6 3 5 8 5 1 5 9 8 9 11 9 6 8 8 4 2 7 7 4 3 1 3 7 9 9 10 9 8 8 7 5 3 2 4 5 7 10 13 15 15 14 14 14 17 23 28 30 30 33 35 34 33 34 35 36 38 38 37 37 37 36
4 4 4 4 5 3 1 3 6 5 7 9 9 5 3 6 6 1 6 8 6 5 3 3 3 5 8 9 8 9 10 8 5 3 2 5 6 7 8 10 13 18 21 22 22 24 25 26 27 30 33 35 34 33 34 34 35 37 36 35 35 36 36
2 3 5 3 4 5 2 6 5 1 7 11 12 8 1 5 7 5 2 6 5 5 5 3 4 2 8 6 5 8 10 9 7 6 4 5 6 5 6 9 10 13 19 25 29 32 30 28 32 34 35 35 33 30 31 32 34 34 33 34 35 35 37
3 2 4 4 3 2 6 13 14 9 3 11 14 9 2 4 6 6 2 6 4 3 6 6 5 5 5 0 5 6 8 7 6 6 6 7 8 8 6 5 7 12 17 21 24 25 23 25 31 33 31 30 28 26 28 32 32 31 32 35 37 37 39
3 3 3 3 2 2 10 16 17 16 8 5 11 6 4 3 4 4 2 7 4 2 5 7 8 7 4 4 5 6 7 6 5 6 6 6 6 7 9 12 12 11 17 18 16 16 19 25 32 34 32 29 25 26 29 30 29 30 34 39 42 44 43
4 4 4 3 1 2 11 17 17 17 10 3 7 5 6 3 1 2 4 7 5 4 6 7 6 4 3 3 1 5 7 7 7 6 5 4 5 5 7 12 16 12 10 12 12 12 13 18 23 26 30 30 29 31 32 29 31 38 43 45 46 45 43
3 3 3 3 1 2 14 22 19 12 5 3 5 4 3 4 3 3 6 6 6 7 9 7 6 5 4 4 3 4 6 7 7 9 9 8 8 10 10 13 17 14 6 2 1 1 2 1 5 10 16 19 20 23 23 23 30 37 40 42 45 44 41
1 2 3 2 1 4 17 21 15 9 6 0 3 5 4 4 5 5 6 6 6 7 8 7 6 6 5 5 4 4 6 7 7 9 10 9 9 10 11 13 15 12 8 8 10 10 10 7 5 4 8 9 8 8 7 10 17 21 22 27 32 33 33
1 0 1 1 2 8 13 11 6 6 7 4 3 6 5 4 5 5 5 6 6 6 7 7 7 6 6 6 6 6 7 7 8 8 9 9 9 9 8 11 13 10 6 6 8 11 12 12 11 9 9 9 7 5 3 6 13 16 18 21 24 24 25
1 1 2 3 4 6 8 6 5 7 10 9 5 4 7 5 3 3 5 5 5 5 7 8 7 7 7 7 7 8 7 7 7 8 8 9 9 9 9 11 13 11 7 6 8 9 10 11 13 13 13 14 13 9 6 5 10 15 18 20 22 22 23
1 2 3 4 4 5 6 6 7 8 10 10 7 4 6 6 4 4 6 6 5 4 6 8 7 5 5 6 7 7 7 7 7 7 7 7 8 8 8 11 13 11 9 8 9 10 10 9 10 12 14 15 14 10 8 7 6 10 16 21 23 24 24
1 2 1 4 4 5 6 8 9 11 11 10 9 7 4 5 6 7 6 7 7 5 6 8 8 6 5 6 6 6 6 7 8 7 7 7 8 8 9 10 10 9 8 7 7 8 8 8 8 9 11 14 17 17 14 10 9 13 18 23 26 29 31
1 1 2 5 4 2 7 9 8 9 10 10 10 9 7 5 6 8 7 6 7 6 6 7 8 7 6 6 6 5 6 6 6 6 6 6 7 8 11 12 10 8 6 5 5 5 6 8 10 12 13 13 15 17 18 21 24 25 24 22 21 21 25
1 1 4 6 5 4 9 11 8 8 8 8 10 10 9 9 7 7 9 8 6 7 7 6 7 9 7 6 6 6 6 6 6 6 5 5 6 7 9 11 11 8 5 4 5 6 7 8 11 14 16 16 18 21 24 28 31 30 26 24 22 18 14
0 2 3 4 3 2 5 7 8 8 7 7 9 10 10 10 9 6 9 9 8 9 8 6 8 9 7 6 7 7 7 7 7 6 6 6 6 8 10 10 10 9 7 5 6 7 7 7 9 12 15 17 19 23 26 29 31 30 28 26 25 23 18
2 2 2 0 1 1 3 4 5 6 6 7 9 9 9 9 8 7 7 8 9 9 8 7 8 9 7 7 7 8 8 7 7 7 8 8 7 9 11 10 9 9 9 7 8 8 7 5 6 7 9 11 14 19 23 27 30 31 30 26 21 19 22
2 1 2 1 2 2 2 4 4 5 5 7 9 8 8 7 6 6 7 8 7 7 7 8 7 7 7 7 7 8 8 8 7 8 10 11 11 11 11 11 9 9 10 9 9 10 10 8 4 2 4 6 9 13 18 22 25 27 27 24 20 18 21
2 0 1 0 1 3 1 3 4 4 6 7 7 7 7 6 5 5 7 7 6 6 7 7 7 7 8 7 7 8 8 7 9 10 11 13 14 13 12 12 11 11 11 11 10 10 12 14 9 1 2 2 5 10 13 17 20 21 20 20 21 21 23
Wind_Direction
217 210 203 188 180 180 199 195 200 197 165 181 230 241 228 219 245 241 203 240 281 283 260 232 202 205 200 201 206 200 199 197 189 189 187 188 192 192 191 192 193 193 193 194 195 195 195 195 195 196 196 195 194 193 192 193 194 194 195 196 197 199 201
229 213 209 211 198 169 164 198 200 170 153 188 204 223 243 239 244 255 215 233 253 244 248 241 189 204 208 203 201 201 201 194 193 198 196 193 192 192 193 192 194 194 192 194 196 196 195 195 195 197 197 196 194 194 192 192 192 194 196 197 198 199 201
226 213 210 225 220 194 181 187 184 167 173 190 180 190 213 218 234 259 244 230 227 217 234 231 194 199 206 204 199 202 201 195 198 202 201 198 192 190 194 195 195 194 193 194 195 196 197 196 197 197 196 194 193 194 193 192 193 194 196 197 197 199 201
214 209 202 212 226 212 192 173 180 186 184 188 192 196 190 194 219 242 243 223 234 229 207 195 209 206 199 199 198 200 200 199 201 201 200 200 193 191 194 196 197 194 194 195 195 196 197 196 197 196 193 192 192 193 193 193 194 195 195 196 197 199 201
214 208 202 203 207 206 198 189 193 203 190 181 204 209 188 173 183 209 226 234 247 243 189 186 211 215 202 197 195 198 200 200 202 200 198 198 195 194 194 194 196 197 196 196 196 197 196 193 193 192 191 191 192 192 192 193 193 193 194 195 196 198 201
229 219 211 204 200 199 203 201 198 196 182 151 191 219 219 194 189 177 203 246 253 235 185 187 208 221 215 200 194 199 201 201 203 201 199 199 195 195 195 193 195 196 195 195 195 195 192 190 190 189 190 191 191 191 192 193 193 194 194 195 196 198 200
240 234 228 211 204 200 200 209 204 188 181 160 178 218 232 222 221 167 174 249 257 228 189 185 208 225 223 207 197 200 204 202 202 202 201 200 197 196 197 195 194 195 194 193 191 189 188 188 187 187 188 190 191 192 192 192 194 195 194 195 196 198 200
255 252 255 249 217 203 200 209 199 188 202 188 172 192 178 201 222 169 187 241 255 261 201 190 224 240 225 208 200 202 207 202 201 204 203 200 200 202 202 198 194 194 192 189 185 184 186 187 186 186 188 190 192 193 193 194 196 196 194 194 196 197 199
238 246 251 251 228 211 207 205 197 200 203 188 176 185 162 210 220 173 192 234 241 291 225 195 231 256 255 231 205 204 209 203 200 203 200 199 203 205 204 199 196 193 186 182 182 183 186 186 185 185 187 190 192 193 194 195 196 195 194 195 196 197 199
213 220 227 222 203 204 218 207 198 200 197 187 183 179 186 225 221 174 200 235 251 273 236 200 220 244 257 253 232 222 219 210 205 203 198 198 202 205 203 198 196 192 184 181 184 185 186 186 184 184 186 189 192 194 195 196 195 194 195 196 197 198 199
212 212 218 209 171 188 213 211 200 198 198 195 185 177 201 196 168 200 211 192 203 232 218 208 216 230 245 248 247 251 233 207 200 204 202 198 197 200 201 199 194 188 182 182 185 185 185 186 185 184 186 189 192 194 195 195 194 194 195 197 197 198 199
219 206 210 209 185 191 206 207 202 198 198 198 194 203 203 146 154 230 218 164 195 235 232 223 219 226 242 241 219 230 225 194 179 183 195 203 205 203 200 197 192 185 182 184 185 185 185 186 187 186 187 190 191 192 193 193 193 194 195 197 198 199 200
241 213 208 212 207 200 202 205 204 197 197 199 203 210 192 148 190 231 204 176 206 228 240 242 230 229 241 224 197 209 226 197 168 161 174 193 208 211 205 200 192 185 184 185 184 185 184 185 186 186 188 191 191 192 193 192 193 195 195 197 199 199 200
275 226 209 212 216 210 202 209 206 197 197 199 204 212 195 178 210 218 172 188 217 214 220 236 238 235 242 238 193 184 217 212 169 158 172 186 199 206 205 202 195 188 188 187 184 183 182 182 184 186 188 190 191 193 193 192 194 195 195 197 199 200 202
299 245 214 209 218 216 207 211 210 204 203 200 204 211 201 195 218 208 167 195 230 239 228 237 244 236 236 243 202 181 202 216 184 166 171 179 188 195 198 199 197 193 189 186 182 179 180 183 184 185 188 190 192 193 192 193 196 196 196 197 199 201 204
307 278 231 214 216 220 215 211 208 204 204 204 205 205 196 195 201 187 179 205 237 246 235 239 246 234 210 214 201 184 201 212 187 175 175 175 175 174 177 183 188 191 186 179 180 181 183 185 184 186 188 188 191 192 193 196 198 197 197 198 200 203 206
291 301 284 235 214 217 227 217 199 188 198 210 212 209 202 194 173 163 195 213 217 213 205 214 230 228 214 213 204 191 215 213 195 180 176 177 175 171 171 173 176 182 181 176 180 184 185 185 187 188 188 187 191 194 195 197 197 196 198 200 202 205 206
276 290 303 271 217 213 225 209 170 172 191 201 205 215 218 210 197 188 204 213 209 208 201 199 211 219 208 189 72 41 25 245 223 202 187 184 182 178 176 177 180 182 182 183 185 187 189 189 190 191 191 191 195 196 196 196 195 195 199 201 203 205 205
272 286 302 268 225 219 213 171 158 176 184 168 153 90 341 269 233 180 103 97 186 215 205 192 184 166 119 86 59 43 38 29 3 261 237 219 198 186 180 178 181 184 186 189 189 191 193 193 194 193 194 195 197 197 196 194 194 197 200 202 203 205 205
268 281 270 226 235 246 163 159 173 172 161 147 124 60 7 348 334 112 120 125 129 100 86 201 171 147 113 76 48 29 23 21 31 44 323 280 243 213 199 188 182 184 190 192 192 197 199 197 196 195 196 197 196 196 196 195 196 199 201 203 204 204 204
249 269 276 254 242 265 11 199 199 172 164 166 138 104 334 330 345 23 140 137 134 116 83 308 253 145 96 56 15 358 3 357 359 30 346 291 266 232 220 211 198 193 192 190 191 199 204 202 200 199 200 199 196 195 195 195 197 200 201 204 205 204 205
276 299 291 274 207 203 281 310 300 99 141 151 127 108 293 325 354 348 115 123 122 114 94 359 308 94 75 44 332 328 345 346 356 22 18 344 328 289 249 239 231 213 199 194 195 199 202 203 203 203 202 200 197 195 194 194 197 199 201 205 206 206 207
345 343 267 243 177 155 341 335 331 342 88 122 105 93 267 305 350 340 39 94 80 87 92 64 47 77 82 17 277 310 330 333 355 19 23 19 9 350 331 300 265 238 217 208 205 201 198 201 205 206 204 201 198 197 196 196 197 198 201 204 206 208 210
337 334 274 260 126 44 341 338 329 318 307 118 107 118 219 257 325 316 77 87 70 80 101 80 67 81 123 201 261 310 323 324 357 25 22 15 12 358 353 351 331 274 233 219 212 204 203 206 205 202 199 198 200 202 201 198 198 200 202 205 207 209 210
327 305 274 296 81 34 343 334 319 308 304 144 136 176 207 196 272 311 62 76 66 61 77 81 82 91 114 134 317 330 340 346 354 7 11 14 20 11 357 359 356 331 260 229 218 213 215 216 212 206 200 197 198 202 202 198 199 203 204 204 207 210 210
322 283 271 305 256 31 353 335 317 316 334 170 172 176 163 138 111 39 47 61 66 66 69 77 89 89 74 67 53 8 4 4 352 353 4 13 14 7 4 8 9 7 9 37 65 28 14 242 224 216 210 208 208 207 206 207 209 208 206 206 207 208 207
328 295 311 350 252 325 346 338 329 351 17 29 143 105 96 86 73 60 50 44 48 69 79 77 75 74 60 49 46 34 26 20 9 3 7 9 3 360 4 8 8 12 37 59 63 64 65 72 84 134 177 194 207 207 209 224 222 215 211 212 212 211 208
90 355 322 6 273 304 329 332 319 342 360 4 85 100 94 65 59 71 67 48 44 68 86 79 64 55 45 30 25 31 32 24 16 9 7 9 5 357 357 3 7 17 44 63 66 75 82 87 87 91 103 106 102 106 132 199 208 204 203 207 210 211 209
147 160 238 270 286 300 313 317 315 345 11 17 17 87 100 85 61 77 85 74 59 64 80 79 63 48 39 25 19 23 23 17 16 11 8 10 6 359 360 4 9 21 48 67 67 68 72 92 112 119 113 99 83 64 65 130 175 183 185 186 187 188 190
212 187 227 277 326 332 330 344 359 12 26 22 3 33 89 97 97 93 96 98 85 73 86 89 78 60 47 39 29 21 15 12 9 5 6 9 4 3 7 8 12 26 44 58 70 70 60 65 98 123 134 132 123 115 107 105 131 162 168 166 164 164 167
243 178 233 329 337 349 2 12 16 16 20 22 16 15 41 86 98 95 94 102 104 97 91 93 93 87 73 60 47 28 20 17 7 359 1 4 3 6 8 12 23 41 51 51 62 72 69 70 85 106 129 143 150 161 172 183 185 177 170 166 162 160 162
229 178 19 339 300 337 25 24 22 19 15 15 23 21 7 20 70 87 83 84 96 93 83 88 94 85 68 61 58 46 35 26 13 5 2 359 2 7 8 14 28 48 65 75 78 76 77 88 97 104 112 127 144 157 164 169 169 163 156 153 150 151 157
279 222 23 355 317 341 16 17 19 23 17 15 25 29 18 4 19 66 75 68 70 74 68 67 76 72 56 42 47 50 44 35 26 19 14 14 17 13 7 12 23 35 53 80 90 94 107 114 116 119 124 132 143 149 150 153 154 148 140 136 133 130 136
212 135 58 14 346 336 348 359 15 16 14 29 35 33 29 12 353 16 60 65 60 59 56 52 65 69 54 34 41 50 45 36 28 21 18 21 22 17 17 21 28 36 48 65 69 76 97 116 119 125 134 140 146 149 151 152 147 140 136 135 136 139 139
189 137 111 79 130 162 290 327 20 21 13 34 41 34 33 22 351 350 32 54 53 51 46 42 55 64 55 39 43 50 43 33 28 25 22 21 21 19 22 29 33 35 41 50 52 55 73 104 115 118 126 137 145 146 146 147 144 140 140 138 137 141 142
243 123 110 122 125 125 290 317 8 37 37 43 43 33 27 19 356 358 25 41 46 52 50 42 43 54 57 48 45 50 46 31 26 29 26 25 28 27 26 29 30 29 29 29 31 38 44 45 49 93 112 124 144 148 146 146 144 141 141 139 133 133 135
246 239 71 33 144 135 115 332 352 30 54 65 59 37 19 6 358 13 32 36 33 38 49 47 36 38 49 52 45 47 47 32 26 32 32 29 29 28 27 26 25 30 34 33 33 36 32 28 30 67 193 184 163 152 146 147 146 145 144 140 134 134 134
Height
670 675 674 671 685 700 701 701 710 707 696 705 727 734 723 726 742 732 714 714 703 691 685 673 673 677 674 675 675 675 678 677 679 685 685 686 686 685 687 689 691 693 694 697 699 702 706 710 714 718 720 723 727 732 736 741 745 749 753 756 759 762 765
670 662 667 668 667 677 694 705 700 691 692 699 716 736 735 737 750 734 712 715 712 708 702 679 674 684 681 678 678 676 676 677 679 681 680 680 680 680 681 682 683 685 688 691 693 697 700 703 706 709 713 718 723 727 731 735 740 744 748 751 755 758 760
671 658 671 681 669 663 677 686 680 687 709 715 715 730 737 743 751 736 718 715 710 708 702 683 678 685 681 678 678 677 677 677 678 676 675 675 675 677 679 678 680 681 683 686 688 691 694 697 700 704 709 715 720 724 727 731 734 737 742 746 750 754 756
670 666 677 691 685 671 668 673 676 681 694 705 709 712 718 731 743 738 729 723 708 694 684 677 677 676 674 675 675 675 675 672 672 671 671 672 672 674 675 675 676 677 677 679 681 685 688 692 697 702 708 713 716 720 724 727 731 734 738 742 745 749 751
672 677 675 678 681 679 678 682 687 686 685 691 698 699 698 711 730 736 735 729 705 677 666 666 666 663 664 667 667 668 667 664 664 664 663 665 666 667 668 669 671 671 672 673 675 680 684 689 695 700 704 709 712 716 720 723 727 730 734 737 740 743 745
678 674 661 656 661 666 672 678 680 684 687 693 706 711 698 696 710 717 722 723 697 665 654 655 655 654 654 656 658 660 658 656 656 656 656 656 658 660 661 661 663 665 667 669 672 677 682 687 691 695 699 704 708 712 715 719 722 725 728 731 734 738 740
673 663 649 647 649 649 657 665 667 674 683 689 705 717 706 697 700 698 705 711 685 655 647 647 649 650 648 650 652 652 652 650 649 651 650 650 651 652 653 653 655 658 660 663 667 672 678 682 686 690 695 699 703 706 710 714 717 719 722 726 729 733 736
664 656 647 645 644 646 656 660 659 667 674 677 684 692 693 696 698 697 708 709 680 652 643 640 642 644 643 647 648 648 649 646 645 646 645 647 648 647 647 648 650 652 655 660 665 670 674 677 681 686 690 694 698 702 706 708 711 714 718 722 725 728 731
684 676 669 662 655 653 657 657 655 657 660 668 675 677 684 693 692 693 705 705 679 654 643 638 639 642 642 644 643 644 645 643 642 642 641 643 644 643 644 646 648 651 655 659 664 666 669 672 676 681 685 690 693 697 701 703 707 711 715 718 721 724 727
695 690 680 670 663 658 654 650 650 651 654 663 673 679 689 696 692 687 692 692 675 656 648 644 640 641 642 640 639 639 640 639 638 637 637 638 639 641 643 644 647 650 653 657 660 661 664 668 672 676 680 685 689 692 696 700 704 709 712 715 718 720 723
667 667 660 650 649 654 655 651 649 649 650 653 664 677 685 688 690 688 682 678 672 662 655 651 644 640 640 639 638 637 634 635 635 635 635 634 635 637 639 640 644 647 651 654 656 658 661 664 667 671 675 679 684 688 692 696 701 705 709 712 715 717 719
643 643 643 639 639 645 648 648 649 648 647 649 658 669 671 672 686 689 675 670 673 666 656 652 647 641 640 640 638 635 631 630 630 632 634 635 634 634 634 637 641 645 649 651 653 656 658 661 665 667 671 675 678 683 688 692 698 702 705 709 711 713 715
642 633 635 633 635 640 639 640 644 644 645 648 653 657 659 662 672 674 666 665 669 663 653 649 645 639 636 635 632 629 629 628 625 627 632 635 636 636 636 637 639 641 645 647 649 652 653 657 661 664 668 672 675 680 684 688 692 696 700 704 706 709 711
651 633 630 628 630 636 637 637 637 637 640 642 643 647 650 652 654 656 658 660 658 653 647 640 636 632 629 629 629 627 628 628 624 624 628 631 632 634 635 636 636 637 639 641 644 647 650 654 658 661 665 669 672 676 679 683 687 690 694 698 701 704 706
663 637 626 626 627 631 636 637 633 633 636 639 640 642 644 649 654 654 657 660 655 648 641 634 629 627 626 628 630 627 626 627 625 622 625 627 629 630 632 633 634 635 636 639 641 644 648 650 653 657 660 663 667 671 676 680 682 685 689 693 696 698 699
678 646 633 629 624 627 636 636 632 632 634 637 638 637 638 644 650 654 660 664 657 645 637 631 626 625 627 626 627 627 626 627 627 624 624 625 625 627 629 631 634 636 637 640 642 643 645 646 649 653 656 660 664 668 671 674 677 681 685 688 691 693 694
685 658 647 635 629 642 644 629 623 628 629 631 632 631 631 632 637 647 653 650 642 633 631 632 628 626 628 625 625 628 627 626 625 623 623 624 622 622 624 626 631 634 635 636 638 640 641 643 646 648 651 655 659 661 664 667 671 677 680 682 686 688 690
689 666 653 645 646 652 635 608 606 616 620 624 630 631 629 624 624 630 632 630 627 625 626 630 628 626 628 628 628 629 628 626 626 623 621 620 618 618 619 621 624 627 628 630 632 633 636 638 639 642 645 648 651 653 658 663 668 673 675 678 681 684 687
686 665 659 668 663 638 611 595 596 602 606 613 625 632 630 626 623 622 624 628 628 624 623 622 622 626 630 631 631 630 627 625 624 625 623 621 619 618 617 618 620 623 625 627 628 630 632 634 636 639 642 644 647 651 656 661 665 668 671 674 677 680 684
682 669 667 670 651 617 601 599 596 598 605 610 623 639 640 634 630 627 627 629 626 624 624 620 620 624 626 627 630 630 628 625 622 622 622 621 621 619 617 615 614 616 619 621 624 627 629 631 634 636 638 641 644 649 653 658 661 664 667 670 673 676 679
676 673 665 649 632 620 614 609 599 599 606 607 617 641 647 637 633 631 629 628 625 623 625 624 623 621 621 629 635 631 629 628 624 622 620 618 617 616 615 613 610 608 610 613 618 623 626 630 632 633 634 637 640 644 648 653 657 660 664 667 669 672 675
667 674 672 651 642 640 629 619 606 594 596 597 604 632 647 639 634 634 630 630 628 622 621 624 624 622 630 645 646 635 631 629 626 624 623 620 617 613 612 613 611 609 609 610 612 616 620 624 627 628 631 634 637 641 645 648 652 656 660 663 665 668 670
673 682 682 659 650 651 643 634 621 605 601 595 599 634 656 643 634 636 633 632 633 628 624 623 622 628 645 659 652 638 634 632 628 626 625 622 620 616 612 612 612 611 611 611 612 615 618 621 624 626 630 633 637 639 641 644 648 651 654 657 660 663 665
686 689 684 660 650 656 651 640 629 617 605 594 611 653 665 643 634 637 633 632 634 632 629 626 628 639 651 655 647 637 633 631 628 627 626 624 624 621 616 614 611 609 610 612 614 616 617 618 620 623 627 632 636 638 638 641 644 646 648 650 653 655 658
692 691 686 667 655 654 649 641 630 616 602 603 629 656 650 634 637 637 631 633 635 632 630 630 636 645 647 644 643 638 634 632 629 627 626 624 623 623 622 619 614 610 609 610 613 615 616 617 619 621 623 625 628 630 632 634 635 636 638 641 645 648 652
695 693 685 673 661 650 644 641 627 610 610 624 638 641 633 632 637 634 632 635 634 633 635 635 639 645 644 642 643 641 638 637 633 629 626 623 622 622 621 621 618 614 612 612 614 616 617 618 620 623 624 625 626 627 629 630 630 631 634 637 640 643 647
695 698 692 685 676 658 648 648 638 626 633 640 636 632 634 636 635 634 636 637 635 636 639 639 642 644 643 644 644 642 641 639 636 633 629 626 625 623 622 623 622 620 617 616 616 616 616 617 619 620 623 626 628 629 631 631 632 634 637 640 642 644 647
692 703 700 689 679 665 659 663 660 649 644 639 634 635 639 638 637 638 640 639 638 638 639 641 643 643 643 644 643 641 642 641 639 637 634 631 629 627 625 625 624 623 622 620 619 618 616 616 618 619 622 626 628 629 629 630 631 633 635 638 641 645 648
682 691 688 676 670 668 665 665 661 651 642 639 639 640 639 641 642 640 641 643 643 641 641 643 644 645 646 646 644 643 644 642 641 640 637 635 634 630 628 627 625 625 625 623 622 621 618 617 617 618 620 624 628 630 629 629 630 630 631 634 637 640 643
675 677 677 672 671 672 667 661 656 650 645 644 646 645 643 645 645 642 643 645 645 644 644 645 647 649 650 648 647 645 644 643 642 642 640 639 637 634 632 629 627 626 626 625 624 622 621 620 619 617 617 618 621 626 628 630 632 633 634 635 635 636 640
677 678 677 674 673 671 668 662 656 651 649 648 649 651 650 648 645 645 646 646 646 648 647 647 650 652 650 650 650 648 646 645 644 643 642 641 639 637 635 633 630 629 627 626 625 623 622 621 620 619 618 616 616 618 619 622 630 637 640 638 635 633 635
677 676 675 673 671 667 665 663 660 657 656 654 652 653 654 652 648 646 646 647 647 647 648 649 650 650 651 651 651 649 649 649 647 646 646 644 642 640 637 635 633 631 629 628 626 624 623 622 619 618 618 617 616 616 616 618 624 632 636 636 634 634 636
675 673 673 673 670 666 666 665 663 660 660 658 655 655 656 658 656 650 647 649 649 648 649 649 648 649 651 651 650 650 650 649 649 649 648 646 643 641 638 636 635 633 632 630 628 627 626 624 622 620 619 619 619 619 620 622 624 626 629 631 632 636 641
677 675 676 677 676 676 675 670 665 663 661 660 659 657 657 661 662 658 653 652 651 650 650 650 649 651 652 651 651 651 650 650 650 649 647 645 643 640 638 637 636 636 634 633 631 630 629 628 627 626 625 624 624 623 623 623 622 622 625 627 629 632 636
673 672 674 675 676 678 676 670 666 663 660 658 659 660 661 664 666 663 660 657 656 655 654 653 652 652 653 652 652 652 651 651 650 648 647 646 643 641 639 638 638 637 637 635 633 632 632 632 631 631 630 629 629 627 625 623 621 620 622 624 628 631 631
668 668 670 671 673 675 673 670 667 662 659 658 660 662 664 667 668 667 665 663 662 661 659 657 655 654 654 653 653 652 653 652 650 649 649 647 645 644 642 640 640 639 638 637 636 635 635 636 635 635 635 634 633 631 628 626 624 622 622 623 626 631 632
668 668 668 668 670 671 670 669 668 664 660 660 661 664 668 670 670 668 666 666 666 664 662 661 659 657 655 654 654 653 653 653 652 651 650 648 647 646 644 642 642 641 639 639 638 637 637 637 637 638 638 638 636 635 633 631 629 627 627 628 629 631 634